Tracking 19242 objects as of 16-Aug-2018
HD Live streaming from Space Station
objects crossing your sky now

FENGYUN 1C DEB

Track FENGYUN 1C DEB now!
10-day predictions


NORAD ID: 32106
Int'l Code: 1999-025CQY
Perigee: 790.4 km
Apogee: 1,021.5 km
Inclination: 101.5 °
Period: 103.0 minutes
Semi major axis: 7276 km
RCS: 0.0084 m2 (small)
Launch date: May 10, 1999
Source: People's Republic of China (PRC)
Launch site: Taiyaun Space Center, China (TSC)

Note: This is SATELLITE DEBRIS
aabbcc
Your satellite tracking list
Your tracking list is empty




NASA's NSSDC Master Catalog

Two Line Element Set (TLE):
1 32106U 99025CQY 18227.05857945  .00001124  00000-0  74380-3 0  9993
2 32106 101.4755 171.6645 0158823  42.3032 319.0246 13.98558599562233
Source of the keplerian elements: AFSPC